Temperature
9 8 7 8 9 9 10 10 10 10 10 10 10 10 10 11 11 11 11 11 11 11 11 10 10 10 10 10 10 10 10 10 10 10 10 10 10 10 10 10 11 11 11 11
9 8 8 9 9 9 9 9 9 9 10 10 9 9 10 10 11 11 11 11 11 11 10 10 10 10 9 9 9 9 10 10 10 10 10 10 10 10 10 10 10 10 10 10
8 8 9 9 9 9 9 8 8 8 8 9 8 9 10 10 11 11 11 11 11 10 10 10 9 9 9 9 9 9 9 9 9 9 9 9 9 9 9 9 9 10 10 10
8 9 9 8 8 8 8 9 9 8 7 7 8 7 9 10 10 10 10 10 10 10 10 9 9 9 9 8 9 9 9 9 9 9 9 9 9 8 9 9 9 9 9 9
7 8 8 7 8 8 7 8 8 8 7 6 8 7 8 10 10 9 10 10 10 10 9 9 9 9 8 8 8 8 8 8 8 8 8 8 8 8 8 8 8 9 9 9
7 8 8 7 8 8 8 7 7 7 7 6 7 7 8 9 9 9 10 10 9 9 9 9 8 8 8 8 8 8 8 8 8 8 8 8 8 8 8 8 8 8 8 8
7 7 7 7 7 7 7 6 6 6 6 7 8 8 8 9 10 10 9 9 9 9 8 8 8 8 8 7 7 7 7 7 7 7 8 8 8 8 8 8 8 8 8 8
7 7 7 7 7 6 6 7 6 6 6 7 7 7 8 9 10 10 9 9 9 8 8 7 7 7 7 7 7 7 7 7 7 7 7 7 7 7 7 7 7 7 7 8
7 7 7 7 7 7 7 6 7 6 5 5 7 8 8 9 9 9 8 8 8 7 7 7 7 7 7 6 6 6 6 7 7 7 7 7 7 7 7 7 7 7 7 7
6 5 6 6 7 7 7 7 5 5 5 6 8 8 8 8 8 8 8 7 7 7 6 6 6 6 6 6 6 6 6 6 6 6 6 6 6 6 6 6 6 6 6 6
5 4 5 5 5 5 5 5 5 5 5 5 6 7 9 7 7 7 7 7 6 6 6 6 6 6 6 6 6 6 6 6 6 6 6 6 6 6 6 6 6 6 6 6
5 4 4 5 5 5 5 6 5 4 4 5 5 6 8 7 7 7 7 7 6 6 5 5 5 5 5 5 5 5 5 5 5 5 5 5 6 6 6 6 6 5 5 5
4 3 3 5 4 4 4 5 5 4 4 4 4 6 7 7 6 7 6 6 5 5 5 4 4 4 5 5 5 5 5 5 5 5 5 5 5 5 5 5 5 5 5 5
4 2 3 4 5 4 3 4 4 3 3 4 4 5 6 6 5 5 5 5 5 5 4 4 4 4 4 4 4 4 4 4 4 4 4 4 5 5 5 5 5 4 4 4
3 2 2 3 4 4 4 3 3 3 3 3 5 5 6 5 5 5 5 5 5 4 4 4 3 3 4 4 4 3 4 4 4 4 4 4 4 4 4 4 4 4 4 4
1 1 2 2 3 3 3 4 4 3 3 4 4 4 5 5 6 5 5 4 4 4 3 3 3 3 3 3 3 3 3 3 3 3 3 3 3 4 4 4 3 3 3 3
1 0 1 2 3 3 3 3 3 3 4 4 3 4 5 4 4 4 4 4 3 3 3 3 2 2 3 3 3 3 3 3 3 3 3 3 3 3 3 3 3 3 3 3
0 0 1 1 2 2 4 4 4 4 4 4 4 4 4 4 4 4 4 3 3 3 3 2 2 2 2 2 2 2 2 2 2 2 2 2 2 2 2 2 2 2 2 2
1 0 1 1 2 3 4 4 3 3 3 3 3 3 3 4 3 4 4 3 3 2 2 2 2 2 2 2 2 2 2 2 1 2 2 2 2 2 2 2 2 1 1 1
0 -0 -0 1 1 2 4 3 3 3 2 3 2 2 2 2 1 2 3 2 2 2 2 2 2 2 2 2 2 1 1 1 1 1 1 1 1 1 1 1 1 1 1 1
-1 -1 -1 -0 1 2 3 2 3 2 3 2 2 2 2 1 1 2 2 2 2 2 2 2 2 1 1 1 1 1 1 0 0 0 1 1 1 1 1 1 1 0 0 0
-1 -1 -1 -0 0 1 2 1 1 2 2 2 2 2 1 1 1 1 1 1 1 1 1 1 1 1 1 1 1 0 0 0 -0 -0 0 0 0 0 0 0 -0 -0 -0 -0
0 0 0 1 2 2 2 2 2 2 1 1 1 1 1 1 0 0 0 0 0 0 0 0 0 0 0 0 0 -0 -0 -0 -1 -1 -0 -0 -0 -0 -1 -1 -1 -1 -1 -1
1 1 1 0 1 2 2 2 2 2 1 1 1 1 0 0 -0 -0 -0 -0 -0 -0 -0 -0 -0 -0 -0 -0 -0 -1 -1 -1 -1 -1 -1 -1 -1 -1 -1 -1 -1 -1 -1 -2
1 -0 -0 -0 0 2 2 2 1 1 1 1 0 0 0 -0 -0 -1 -1 -1 -1 -1 -1 -1 -1 -1 -1 -1 -1 -1 -1 -1 -2 -2 -2 -2 -2 -2 -2 -2 -2 -2 -2 -2
-0 -1 -1 0 1 0 1 1 1 1 0 0 -0 -0 -1 -1 -1 -1 -1 -1 -1 -1 -1 -1 -1 -1 -1 -1 -1 -1 -2 -2 -2 -2 -2 -2 -2 -2 -2 -2 -2 -2 -2 -2
Wind_Speed
3 2 3 4 5 5 6 6 8 7 5 6 9 12 10 8 9 8 6 6 5 5 5 4 2 2 1 2 3 3 3 3 3 3 3 3 3 2 2 2 3 3 3 3
3 4 5 4 4 5 7 8 8 6 5 7 10 13 10 9 8 5 5 5 5 4 4 4 2 2 2 3 4 4 4 3 4 4 4 3 3 2 3 2 2 4 4 3
4 2 2 3 5 6 7 7 7 7 8 7 8 9 6 5 5 5 5 5 4 5 5 4 3 2 2 2 3 4 3 4 4 4 4 3 2 1 2 3 3 3 4 4
2 3 4 5 5 5 6 4 6 7 6 5 3 6 6 5 5 5 5 5 4 3 4 3 3 3 2 3 3 3 3 3 4 5 4 5 4 4 4 4 4 3 3 4
2 2 4 5 4 5 4 5 7 8 7 7 6 6 6 4 5 5 4 4 4 2 3 3 3 3 3 3 3 3 3 3 3 4 5 6 5 4 3 3 4 3 3 3
4 3 3 3 4 5 5 6 6 5 3 6 6 6 6 4 5 4 4 3 3 2 2 2 2 2 3 3 3 3 3 3 3 4 5 5 5 4 4 4 4 4 3 3
4 5 4 3 3 3 3 2 1 1 2 6 3 4 6 3 3 3 2 3 2 1 2 3 3 3 3 3 3 3 3 3 3 4 5 5 5 5 6 5 5 4 3 3
3 4 5 4 4 3 4 3 2 3 4 4 3 6 5 3 1 1 1 2 2 2 2 3 3 3 3 4 4 3 3 4 4 5 5 4 4 4 4 4 4 5 4 4
2 2 2 2 3 4 3 3 2 2 4 5 6 5 3 2 2 2 3 3 3 3 3 4 4 3 3 3 4 4 4 4 4 4 4 4 4 4 4 4 4 4 3 4
2 2 2 2 3 4 4 2 1 2 2 5 6 6 4 3 4 4 4 3 5 3 4 5 4 3 2 2 3 4 4 4 3 3 4 3 4 4 4 3 4 4 4 4
2 2 2 2 5 5 4 4 3 3 3 3 5 5 1 2 2 3 4 5 6 5 5 5 4 3 3 3 3 3 3 3 3 3 3 3 4 3 3 3 4 4 4 5
1 1 3 4 3 2 4 5 5 4 5 4 5 7 1 1 2 4 5 5 5 5 5 5 4 3 3 3 3 2 2 2 3 2 3 3 3 3 3 3 4 4 5 5
1 1 2 2 1 2 3 5 5 4 3 5 6 7 1 3 5 6 6 6 6 5 6 5 5 4 4 4 3 2 2 2 2 2 2 2 2 3 3 3 3 3 4 4
1 2 5 6 4 2 5 7 6 5 5 6 9 12 10 7 7 8 7 6 6 5 5 5 5 4 4 4 4 3 3 2 3 2 2 2 3 3 3 2 3 3 3 3
1 3 5 8 9 7 9 10 9 11 10 9 10 12 12 8 7 7 7 7 6 5 5 6 6 5 5 4 4 4 3 3 3 2 2 3 2 2 2 2 3 3 3 3
1 3 3 6 8 9 12 12 12 12 11 13 14 15 10 7 6 7 6 6 6 6 6 6 6 6 5 4 4 4 4 3 2 2 2 2 2 2 2 2 2 2 2 3
3 3 2 4 4 6 9 9 11 9 9 9 12 11 7 6 7 7 6 5 5 7 7 6 5 5 5 4 4 3 3 3 2 2 2 2 2 2 2 2 2 2 2 2
4 3 3 3 3 7 6 1 4 8 9 9 9 8 6 6 6 6 5 4 6 6 6 6 4 4 3 3 3 3 3 3 3 3 2 2 1 1 2 1 1 1 1 2
5 4 3 3 4 7 4 2 3 4 7 5 6 8 7 6 6 5 3 4 4 5 5 5 3 3 3 3 3 3 3 3 3 3 3 3 2 1 2 2 2 2 1 1
1 3 3 4 4 6 3 0 0 1 5 2 3 5 5 3 4 5 5 5 5 5 5 4 3 3 3 3 2 3 3 3 3 3 4 4 3 2 2 2 2 1 1 1
4 4 6 6 6 7 2 1 2 2 4 4 3 3 3 2 4 5 5 6 5 5 5 4 3 3 3 3 3 3 3 3 4 3 3 3 3 2 2 1 1 0 0 0
7 6 7 6 6 7 1 3 3 4 2 3 3 2 2 3 4 4 4 5 5 5 4 4 3 4 3 3 3 3 4 4 4 4 3 3 3 2 2 1 1 0 1 0
7 7 5 7 7 2 4 3 2 1 3 3 3 3 2 3 4 4 4 4 5 5 4 4 3 4 4 3 2 2 3 4 4 4 4 4 3 3 2 1 1 0 1 1
4 3 3 5 6 4 4 3 3 2 3 3 3 3 2 3 4 4 4 4 5 5 5 4 4 4 4 4 3 2 3 3 3 4 4 4 3 3 3 2 1 0 1 1
4 4 4 6 6 5 4 4 4 4 3 3 3 3 3 3 4 4 4 4 4 4 4 3 4 4 5 4 3 3 3 3 3 3 3 3 3 2 2 2 1 1 1 2
4 5 5 6 3 3 3 2 3 3 3 3 3 4 3 3 4 4 4 4 4 4 4 4 4 5 5 5 4 3 3 2 2 3 3 2 2 2 2 2 2 3 2 2
Wind_Direction
188 202 216 230 231 257 283 274 274 283 291 283 267 270 268 263 258 253 250 246 237 241 243 229 214 190 241 247 222 221 218 203 191 193 186 192 199 193 206 218 204 200 201 212
194 221 231 251 264 263 269 273 278 288 300 292 277 275 266 255 244 238 242 247 236 239 246 242 227 204 229 251 224 212 218 206 205 202 192 195 194 205 209 209 214 206 205 214
209 223 223 241 263 267 258 255 273 287 302 270 278 275 246 237 231 234 247 255 240 235 246 246 236 231 241 248 234 226 222 215 212 202 183 177 176 196 215 212 207 212 215 223
223 239 244 249 253 261 261 276 284 290 299 284 276 284 255 228 223 235 250 257 262 251 253 247 241 232 244 239 233 225 213 218 213 199 196 193 199 212 225 206 204 205 222 234
231 235 249 247 248 262 265 300 281 276 276 282 250 256 268 226 238 254 257 251 257 251 251 246 248 230 239 231 218 220 223 233 215 201 201 200 209 220 214 198 195 207 221 231
243 247 254 256 257 252 272 285 270 257 258 265 239 233 274 234 238 252 267 263 262 264 286 264 265 246 237 231 216 213 225 236 227 216 212 209 209 213 201 205 206 212 211 206
224 217 209 238 253 225 251 277 316 303 245 253 245 239 257 239 241 245 268 281 272 272 297 302 290 273 255 244 238 228 224 236 231 224 223 222 213 214 209 210 210 211 209 211
243 229 189 205 227 232 235 232 204 246 265 283 268 244 248 226 275 358 348 327 294 301 292 294 287 272 267 258 255 246 242 240 234 227 229 230 224 221 220 217 217 217 214 215
261 251 125 198 243 242 234 223 255 260 279 277 258 246 259 250 271 302 318 326 313 295 289 294 295 281 271 272 262 254 254 244 235 232 233 230 228 228 226 220 222 224 220 218
317 272 230 230 228 244 252 243 189 200 256 271 269 253 254 261 295 300 309 324 321 326 321 298 298 300 283 279 284 268 259 249 238 231 236 247 244 235 224 215 222 222 217 213
302 243 241 210 214 220 207 216 219 231 243 253 283 277 269 222 292 335 338 346 337 332 322 313 313 314 311 300 282 266 255 260 248 234 232 238 243 234 223 217 224 222 217 213
242 248 254 233 225 260 237 222 199 208 242 239 266 273 3 45 358 351 336 334 330 321 315 317 318 327 325 316 297 287 282 268 258 239 230 234 227 229 227 225 229 224 219 220
166 186 278 275 235 221 254 244 232 233 250 242 246 261 301 344 346 345 329 319 320 319 320 317 317 322 325 315 301 291 292 289 279 262 249 233 225 231 228 232 236 229 224 226
225 218 218 236 256 222 252 253 242 224 231 249 244 266 286 304 320 320 319 315 315 321 323 321 325 320 320 316 309 305 297 292 290 265 252 245 242 241 230 233 239 233 222 224
200 240 247 264 275 265 254 246 231 230 233 242 260 268 278 292 303 305 308 312 318 324 327 322 323 321 317 312 313 316 309 301 288 261 254 259 264 260 232 225 232 232 230 232
197 251 276 269 255 258 263 252 237 236 240 250 266 274 276 291 301 304 301 306 312 321 318 320 318 318 318 324 325 320 311 303 296 270 256 268 275 269 248 241 234 225 232 240
190 203 257 270 291 299 263 236 220 225 228 227 246 257 285 304 298 292 294 299 306 310 310 308 306 305 312 319 321 318 321 333 325 297 280 271 272 265 258 261 239 227 229 231
182 192 228 274 306 252 242 186 207 228 241 235 249 271 289 285 295 296 297 296 299 304 306 301 299 301 314 323 329 331 342 332 326 316 315 321 322 302 298 285 268 258 226 209
198 188 221 239 260 273 258 212 195 220 262 244 254 278 299 312 311 293 326 333 310 304 307 303 309 317 337 341 341 357 355 346 340 337 331 330 330 315 312 298 280 265 215 205
183 171 208 223 240 253 265 120 324 156 269 308 268 277 301 346 305 288 333 341 327 325 323 332 349 356 355 344 0 9 351 342 336 333 327 331 332 312 291 280 289 286 225 209
175 192 211 225 240 261 276 158 112 177 264 333 316 292 290 261 262 296 325 333 335 336 341 350 355 354 342 349 14 6 348 336 334 335 334 334 331 314 297 309 310 289 287 185
183 187 201 201 224 252 158 132 186 233 313 324 315 308 292 290 302 316 324 332 336 340 342 344 343 341 346 355 9 1 344 335 342 341 338 334 332 331 338 350 344 86 127 111
199 198 197 204 220 234 167 198 236 301 295 301 308 310 295 304 310 317 322 327 328 332 335 338 337 335 339 345 357 350 338 343 347 350 345 337 337 341 342 352 347 42 138 171
225 202 225 256 261 261 232 247 274 274 283 305 310 310 309 299 305 313 318 322 327 333 333 336 338 334 332 339 350 343 340 346 348 346 341 339 341 343 345 349 340 280 212 215
224 184 224 254 271 287 256 242 258 274 287 292 304 303 286 283 293 300 307 312 319 324 328 334 331 325 324 335 343 343 343 354 351 341 335 338 338 338 345 350 333 295 252 232
213 203 213 242 249 243 271 287 267 261 269 282 296 302 298 282 284 297 304 310 319 324 330 333 331 330 329 335 339 344 348 354 348 334 334 336 338 334 334 348 352 355 329 315
Height
1499 1502 1503 1501 1501 1500 1500 1499 1497 1495 1493 1493 1491 1487 1483 1483 1483 1482 1481 1482 1482 1483 1484 1485 1485 1484 1484 1485 1485 1485 1486 1486 1487 1488 1489 1491 1492 1494 1495 1497 1499 1500 1502 1503
1500 1501 1499 1499 1499 1499 1500 1500 1497 1494 1492 1492 1489 1484 1479 1478 1478 1478 1478 1479 1479 1480 1481 1481 1481 1480 1480 1481 1481 1481 1482 1483 1484 1484 1485 1487 1489 1490 1492 1494 1495 1496 1498 1500
1498 1498 1498 1499 1499 1499 1498 1499 1498 1497 1494 1491 1490 1483 1477 1474 1474 1475 1476 1476 1477 1477 1477 1477 1477 1477 1477 1477 1477 1477 1478 1479 1480 1481 1482 1484 1485 1486 1487 1489 1490 1492 1494 1495
1497 1497 1498 1498 1498 1498 1498 1495 1496 1496 1499 1496 1492 1493 1477 1472 1472 1473 1473 1474 1474 1474 1474 1474 1474 1474 1474 1474 1474 1474 1474 1475 1476 1477 1478 1479 1479 1481 1482 1484 1486 1488 1490 1491
1498 1497 1498 1498 1497 1497 1497 1495 1496 1496 1497 1499 1491 1493 1479 1470 1471 1470 1470 1471 1471 1472 1472 1471 1471 1470 1471 1471 1471 1471 1471 1472 1472 1473 1474 1474 1476 1477 1479 1480 1481 1483 1484 1486
1498 1497 1498 1497 1497 1497 1496 1496 1494 1494 1497 1500 1488 1489 1478 1472 1468 1467 1467 1467 1468 1469 1469 1468 1468 1467 1467 1467 1467 1467 1467 1468 1468 1469 1469 1470 1470 1472 1474 1475 1477 1478 1479 1481
1496 1495 1496 1497 1497 1496 1497 1500 1502 1500 1500 1492 1480 1482 1476 1466 1463 1464 1465 1465 1465 1465 1465 1465 1464 1463 1463 1462 1462 1462 1462 1463 1464 1465 1465 1465 1466 1468 1469 1470 1471 1473 1474 1475
1495 1495 1494 1495 1496 1497 1497 1498 1504 1505 1498 1488 1482 1480 1469 1462 1461 1462 1463 1463 1463 1462 1462 1462 1461 1460 1459 1458 1458 1458 1457 1458 1459 1460 1460 1461 1462 1463 1465 1466 1467 1468 1469 1471
1494 1494 1492 1493 1493 1495 1495 1497 1496 1501 1499 1498 1483 1470 1465 1460 1460 1460 1460 1460 1460 1459 1459 1458 1457 1456 1455 1454 1454 1454 1453 1453 1454 1455 1456 1457 1458 1459 1460 1461 1463 1464 1465 1466
1495 1499 1494 1493 1494 1494 1494 1494 1499 1501 1501 1495 1477 1468 1467 1462 1461 1459 1459 1458 1458 1457 1456 1455 1453 1452 1451 1450 1450 1450 1450 1449 1450 1451 1451 1452 1454 1455 1456 1457 1458 1459 1460 1461
1497 1500 1497 1495 1495 1494 1495 1496 1496 1497 1496 1495 1487 1474 1459 1461 1460 1460 1459 1458 1457 1455 1454 1452 1450 1449 1448 1447 1447 1446 1446 1447 1447 1447 1448 1449 1450 1451 1451 1452 1453 1454 1455 1456
1496 1499 1499 1494 1490 1490 1491 1491 1494 1501 1498 1493 1492 1477 1458 1458 1458 1458 1457 1456 1456 1454 1452 1450 1448 1447 1445 1444 1443 1442 1442 1443 1443 1444 1444 1444 1445 1446 1446 1447 1448 1449 1450 1451
1497 1501 1501 1493 1495 1494 1492 1490 1491 1493 1494 1492 1490 1475 1458 1458 1457 1457 1457 1455 1453 1451 1449 1448 1445 1443 1442 1441 1440 1439 1439 1439 1440 1440 1440 1440 1440 1441 1441 1442 1443 1444 1445 1446
1496 1500 1500 1493 1488 1491 1493 1491 1490 1493 1495 1489 1480 1468 1460 1459 1458 1457 1455 1453 1451 1449 1447 1445 1443 1441 1439 1439 1438 1436 1435 1435 1435 1436 1435 1435 1435 1436 1437 1438 1438 1439 1440 1441
1497 1499 1496 1491 1488 1487 1486 1486 1487 1488 1484 1484 1472 1467 1459 1458 1458 1456 1454 1451 1448 1447 1445 1443 1442 1440 1438 1437 1436 1434 1433 1432 1432 1432 1431 1431 1432 1432 1432 1433 1434 1435 1435 1436
1497 1498 1495 1491 1484 1483 1482 1478 1478 1479 1478 1475 1470 1464 1456 1456 1456 1454 1452 1449 1447 1445 1444 1442 1440 1438 1437 1435 1434 1432 1431 1430 1429 1428 1428 1428 1428 1428 1429 1429 1429 1430 1431 1432
1496 1498 1497 1490 1484 1483 1479 1469 1470 1470 1467 1467 1467 1460 1455 1455 1453 1452 1450 1448 1446 1444 1442 1440 1438 1436 1435 1433 1431 1430 1428 1427 1426 1425 1425 1425 1425 1425 1426 1425 1425 1426 1426 1428
1494 1496 1496 1492 1488 1485 1466 1460 1460 1462 1460 1459 1458 1455 1454 1453 1452 1450 1449 1447 1444 1442 1440 1438 1436 1434 1432 1431 1429 1428 1426 1426 1424 1423 1422 1420 1421 1422 1422 1422 1422 1422 1423 1424
1489 1493 1494 1492 1487 1473 1461 1459 1459 1461 1459 1455 1455 1453 1452 1451 1449 1447 1446 1445 1443 1441 1439 1437 1435 1433 1431 1429 1428 1426 1425 1424 1423 1421 1420 1419 1419 1419 1419 1419 1419 1419 1419 1420
1488 1491 1494 1490 1487 1477 1460 1459 1457 1460 1459 1454 1453 1452 1451 1450 1451 1447 1445 1443 1441 1439 1437 1435 1433 1431 1429 1428 1426 1425 1423 1422 1421 1420 1419 1418 1417 1417 1417 1417 1416 1416 1417 1417
1490 1491 1492 1488 1483 1469 1460 1458 1457 1464 1459 1453 1451 1450 1450 1449 1449 1446 1443 1441 1439 1437 1435 1433 1431 1429 1428 1426 1425 1423 1422 1421 1420 1419 1418 1417 1416 1416 1415 1414 1414 1414 1414 1415
1481 1484 1485 1482 1481 1470 1458 1458 1459 1457 1453 1451 1450 1449 1448 1446 1445 1443 1441 1439 1437 1436 1434 1432 1430 1429 1427 1425 1424 1422 1421 1420 1419 1417 1416 1415 1414 1414 1413 1412 1412 1412 1412 1412
1470 1469 1468 1468 1464 1456 1455 1454 1453 1452 1451 1450 1448 1447 1446 1444 1443 1441 1440 1438 1436 1435 1433 1432 1430 1428 1427 1425 1423 1421 1421 1419 1418 1416 1415 1414 1413 1412 1411 1410 1410 1410 1410 1410
1462 1461 1462 1461 1455 1452 1452 1451 1451 1451 1450 1448 1447 1446 1444 1443 1441 1440 1439 1437 1435 1434 1432 1431 1429 1427 1425 1424 1422 1421 1420 1418 1417 1415 1414 1412 1411 1410 1409 1409 1409 1408 1408 1408
1457 1459 1459 1457 1452 1450 1448 1448 1448 1448 1447 1446 1445 1444 1443 1441 1440 1439 1437 1435 1434 1432 1431 1429 1428 1425 1424 1422 1421 1419 1418 1416 1415 1414 1413 1411 1410 1409 1408 1408 1408 1407 1407 1407
1453 1455 1456 1452 1449 1448 1447 1446 1445 1444 1443 1443 1442 1441 1440 1439 1438 1437 1435 1434 1432 1430 1429 1427 1426 1424 1422 1420 1419 1417 1416 1415 1413 1412 1411 1410 1408 1408 1407 1406 1406 1406 1406 1406